Location: Brookview Estates
(36.0476°N, 86.6931°W)
Time: 18:02:50
(UTC+00:00)

USA 186 - Pass Details

Date: 30 March 2020
Orbit: 263 x 447 km, 96.9° (Epoch: 21 May)

Event Time Altitude Azimuth Distance (km) Brightness Sun altitude
Exits shadow 00:57:18 12° 135° (SE) 1,454 4.0 -10.9°
Maximum altitude 01:00:01 31° 74° (ENE) 818 2.7 -11.5°
Drops below altitude 10° 01:03:06 10° 10° (N) 1,595 4.7 -12.1°
Sets 01:05:16 0° 0° (N) 2,458 5.8 -12.5°
